WMT8JT LIRF-LPPR

Flight info

Callsign WMT8JT
Flight time 2h 27m
Altitude 35000
Route ESINO DCT ABIDU DCT UREXE DCT EPIKU DCT GINOX DCT KIFMI DCT ELVOP DCT MUREN DCT CHELY DCT VERSO DCT SULID DCT SADEM DCT BCN N725 DGO DCT NEA DCT ZMR L155 ADORO DCT INKIT
Aircraft A321/M-SDE1E2E3FGIJ1J4RWXY/LB1

Departure

Time 2026-05-07 10:25
Airport Rome–Fiumicino Leonardo da Vinci International Airport (LIRF)

Arrival

Time 2026-05-07 12:53
Airport Francisco de Sá Carneiro Airport (LPPR)
Time Latitude Longitude Altitude Speed Heading
2026-05-07 10:08 41.79701 12.25991 14 ft 0 kts 295°
2026-05-07 10:16 41.79696 12.26005 14 ft 4 kts 295°
2026-05-07 10:16 41.79686 12.26032 15 ft 4 kts 300°
2026-05-07 10:17 41.79670 12.26049 15 ft 4 kts
2026-05-07 10:17 41.79653 12.26043 15 ft 0 kts 25°
2026-05-07 10:17 41.79672 12.26055 15 ft 4 kts 25°
2026-05-07 10:17 41.79686 12.26064 14 ft 0 kts 25°
2026-05-07 10:19 41.79706 12.26077 15 ft 10 kts 25°
2026-05-07 10:20 41.79771 12.26048 14 ft 12 kts 300°
2026-05-07 10:20 41.79809 12.25945 14 ft 13 kts 296°
2026-05-07 10:20 41.79856 12.25840 14 ft 13 kts 326°
2026-05-07 10:20 41.79942 12.25866 16 ft 14 kts 26°
2026-05-07 10:21 41.80032 12.25921 14 ft 15 kts 25°
2026-05-07 10:21 41.80127 12.25980 14 ft 16 kts 25°
2026-05-07 10:21 41.80227 12.26042 14 ft 16 kts 25°
2026-05-07 10:21 41.80333 12.26107 14 ft 17 kts 25°
2026-05-07 10:22 41.80441 12.26166 16 ft 17 kts 11°
2026-05-07 10:22 41.80530 12.26241 16 ft 16 kts 68°
2026-05-07 10:22 41.80570 12.26390 16 ft 17 kts 70°
2026-05-07 10:22 41.80613 12.26546 16 ft 18 kts 70°
2026-05-07 10:23 41.80659 12.26711 15 ft 19 kts 70°
2026-05-07 10:23 41.80707 12.26886 14 ft 20 kts 70°
2026-05-07 10:23 41.80755 12.27027 13 ft 14 kts 42°
2026-05-07 10:23 41.80846 12.27023 13 ft 12 kts 340°
2026-05-07 10:24 41.80929 12.26984 13 ft 13 kts 340°
2026-05-07 10:24 41.80957 12.26921 13 ft 9 kts 251°
2026-05-07 10:24 41.80950 12.26897 13 ft 4 kts 249°
2026-05-07 10:24 41.80880 12.26644 14 ft 64 kts 250°
2026-05-07 10:25 41.80650 12.25806 18 ft 128 kts 250°
2026-05-07 10:25 41.80277 12.24467 54 ft 173 kts 251°
2026-05-07 10:25 41.79877 12.22972 770 ft 166 kts 250°
2026-05-07 10:25 41.79502 12.21550 1451 ft 165 kts 250°
2026-05-07 10:26 41.79137 12.20067 2116 ft 168 kts 257°
2026-05-07 10:26 41.79034 12.18420 2430 ft 188 kts 272°
2026-05-07 10:26 41.79072 12.16580 2645 ft 207 kts 266°
2026-05-07 10:26 41.78644 12.14746 3092 ft 212 kts 238°
2026-05-07 10:27 41.77658 12.13280 3666 ft 212 kts 223°
2026-05-07 10:27 41.76583 12.11934 4270 ft 211 kts 223°
2026-05-07 10:27 41.75510 12.10600 4853 ft 211 kts 223°
2026-05-07 10:27 41.74429 12.09259 5399 ft 212 kts 223°
2026-05-07 10:28 41.73344 12.07912 5950 ft 213 kts 223°
2026-05-07 10:28 41.72254 12.06557 6492 ft 214 kts 223°
2026-05-07 10:28 41.71107 12.05272 6990 ft 217 kts 213°
2026-05-07 10:28 41.69705 12.04509 7466 ft 223 kts 194°
2026-05-07 10:29 41.68090 12.04361 7606 ft 245 kts 182°
2026-05-07 10:29 41.66322 12.04368 7886 ft 259 kts 182°
2026-05-07 10:29 41.64487 12.04372 8264 ft 272 kts 182°
2026-05-07 10:30 41.60842 12.03085 9534 ft 276 kts 218°
2026-05-07 10:30 41.59334 12.01502 10234 ft 279 kts 220°
2026-05-07 10:30 41.57759 11.99824 10437 ft 301 kts 220°
2026-05-07 10:30 41.56059 11.98017 10561 ft 323 kts 220°
2026-05-07 10:31 41.54238 11.96087 10684 ft 345 kts 220°
2026-05-07 10:31 41.52306 11.94047 10811 ft 364 kts 219°
2026-05-07 10:31 41.50265 11.91897 10985 ft 381 kts 219°
2026-05-07 10:31 41.48168 11.89689 11492 ft 387 kts 219°
2026-05-07 10:32 41.46048 11.87455 12100 ft 390 kts 219°
2026-05-07 10:32 41.43911 11.85203 12737 ft 393 kts 219°
2026-05-07 10:32 41.41756 11.82931 13384 ft 396 kts 220°
2026-05-07 10:32 41.39763 11.80382 13988 ft 399 kts 230°
2026-05-07 10:33 41.38147 11.77373 14537 ft 401 kts 240°
2026-05-07 10:33 41.36973 11.73998 15086 ft 404 kts 250°
2026-05-07 10:33 41.36038 11.70464 15645 ft 406 kts 250°
2026-05-07 10:33 41.35086 11.66920 16215 ft 407 kts 250°
2026-05-07 10:34 41.34121 11.63383 16782 ft 408 kts 250°
2026-05-07 10:34 41.33144 11.59830 17325 ft 409 kts 249°
2026-05-07 10:34 41.32165 11.56266 17853 ft 411 kts 250°
2026-05-07 10:34 41.31200 11.52739 18340 ft 412 kts 250°
2026-05-07 10:35 41.30217 11.49149 18772 ft 414 kts 250°
2026-05-07 10:35 41.29231 11.45538 19185 ft 416 kts 249°
2026-05-07 10:35 41.28241 11.41915 19598 ft 418 kts 249°
2026-05-07 10:35 41.27242 11.38267 20021 ft 420 kts 249°
2026-05-07 10:36 41.26238 11.34613 20432 ft 422 kts 249°
2026-05-07 10:36 41.25213 11.30890 20846 ft 425 kts 249°
2026-05-07 10:36 41.24194 11.27201 21264 ft 426 kts 249°
2026-05-07 10:36 41.23170 11.23501 21666 ft 428 kts 249°
2026-05-07 10:37 41.22137 11.19786 22023 ft 430 kts 249°
2026-05-07 10:37 41.21098 11.16054 22386 ft 432 kts 249°
2026-05-07 10:37 41.20057 11.12300 22759 ft 434 kts 249°
2026-05-07 10:37 41.19028 11.08581 23137 ft 436 kts 249°
2026-05-07 10:38 41.17965 11.04743 23519 ft 438 kts 249°
2026-05-07 10:38 41.16909 11.00942 23839 ft 440 kts 248°
2026-05-07 10:38 41.15846 10.97130 24175 ft 440 kts 248°
2026-05-07 10:38 41.14786 10.93336 24651 ft 436 kts 249°
2026-05-07 10:39 41.13749 10.89632 25149 ft 432 kts 249°
2026-05-07 10:39 41.12705 10.85908 25661 ft 429 kts 249°
2026-05-07 10:39 41.11670 10.82223 26176 ft 425 kts 249°
2026-05-07 10:39 41.10644 10.78574 26697 ft 421 kts 249°
2026-05-07 10:40 41.09623 10.74956 27219 ft 417 kts 249°
2026-05-07 10:40 41.08613 10.71377 27741 ft 413 kts 249°
2026-05-07 10:40 41.07612 10.67826 28267 ft 409 kts 249°
2026-05-07 10:40 41.06617 10.64303 28767 ft 406 kts 249°
2026-05-07 10:41 41.05627 10.60807 29195 ft 405 kts 249°
2026-05-07 10:41 41.04636 10.57323 29657 ft 403 kts 249°
2026-05-07 10:41 41.03650 10.53862 30159 ft 400 kts 249°
2026-05-07 10:41 41.02671 10.50426 30570 ft 398 kts 249°
2026-05-07 10:42 41.01696 10.47003 30921 ft 397 kts 249°
2026-05-07 10:42 41.00722 10.43589 31255 ft 397 kts 249°
2026-05-07 10:42 40.99744 10.40174 31585 ft 396 kts 249°
2026-05-07 10:42 40.98899 10.36707 31890 ft 397 kts 256°
2026-05-07 10:43 40.98458 10.33097 32201 ft 398 kts 261°
2026-05-07 10:43 40.98098 10.29471 32519 ft 397 kts 261°
2026-05-07 10:43 40.97732 10.25850 32834 ft 397 kts 261°
2026-05-07 10:43 40.97363 10.22224 33152 ft 397 kts 261°
2026-05-07 10:44 40.96992 10.18608 33480 ft 397 kts 261°
2026-05-07 10:44 40.96620 10.14996 33784 ft 397 kts 261°
2026-05-07 10:44 40.96246 10.11379 34075 ft 397 kts 261°
2026-05-07 10:44 40.95873 10.07765 34341 ft 396 kts 261°
2026-05-07 10:45 40.95504 10.04166 34641 ft 394 kts 261°
2026-05-07 10:45 40.95137 10.00581 34933 ft 393 kts 261°
2026-05-07 10:45 40.94388 9.93395 35024 ft 396 kts 261°
2026-05-07 10:46 40.93628 9.86178 35022 ft 397 kts 261°
2026-05-07 10:46 40.92866 9.78952 35000 ft 396 kts 261°
2026-05-07 10:47 40.92105 9.71795 35032 ft 395 kts 261°
2026-05-07 10:47 40.91566 9.64566 35035 ft 396 kts 265°
2026-05-07 10:48 40.91338 9.57276 35029 ft 397 kts 265°
2026-05-07 10:48 40.91101 9.49987 35046 ft 397 kts 265°
2026-05-07 10:49 40.90863 9.42687 35058 ft 398 kts 265°
2026-05-07 10:49 40.90623 9.35387 35039 ft 398 kts 265°
2026-05-07 10:50 40.90367 9.28074 35031 ft 398 kts 265°
2026-05-07 10:50 40.90110 9.20757 35031 ft 399 kts 265°
2026-05-07 10:51 40.89852 9.13436 35029 ft 399 kts 265°
2026-05-07 10:51 40.89587 9.06115 35039 ft 399 kts 265°
2026-05-07 10:52 40.89319 8.98787 35034 ft 400 kts 265°
2026-05-07 10:52 40.89050 8.91444 35024 ft 399 kts 265°
2026-05-07 10:53 40.88766 8.84117 35022 ft 399 kts 265°
2026-05-07 10:53 40.88477 8.76791 35020 ft 399 kts 265°
2026-05-07 10:54 40.88186 8.69456 35035 ft 400 kts 264°
2026-05-07 10:54 40.87894 8.62167 35032 ft 400 kts 264°
2026-05-07 10:55 40.87597 8.54824 35028 ft 400 kts 264°
2026-05-07 10:55 40.87294 8.47490 35033 ft 400 kts 264°
2026-05-07 10:56 40.86987 8.40149 35033 ft 400 kts 264°
2026-05-07 10:56 40.86678 8.32808 35048 ft 400 kts 264°
2026-05-07 10:57 40.86363 8.25465 35039 ft 401 kts 264°
2026-05-07 10:57 40.86039 8.18114 35036 ft 401 kts 264°
2026-05-07 10:58 40.85752 8.10768 35032 ft 402 kts 268°
2026-05-07 10:58 40.86086 8.03377 35035 ft 403 kts 270°
2026-05-07 10:59 40.86460 7.95990 35057 ft 404 kts 271°
2026-05-07 10:59 40.86974 7.88602 35046 ft 404 kts 272°
2026-05-07 11:00 40.87524 7.81215 35046 ft 404 kts 272°
2026-05-07 11:00 40.88046 7.73824 35046 ft 404 kts 272°
2026-05-07 11:01 40.88541 7.66433 35039 ft 404 kts 271°
2026-05-07 11:01 40.89028 7.59036 35023 ft 404 kts 271°
2026-05-07 11:02 40.89511 7.51638 35041 ft 404 kts 271°
2026-05-07 11:02 40.89994 7.44252 35038 ft 404 kts 271°
2026-05-07 11:03 40.90476 7.36860 35043 ft 403 kts 271°
2026-05-07 11:03 40.90951 7.29471 35042 ft 403 kts 271°
2026-05-07 11:04 40.91416 7.22085 35040 ft 403 kts 271°
2026-05-07 11:04 40.91800 7.15947 35043 ft 403 kts 271°
2026-05-07 11:05 40.92262 7.08560 35045 ft 403 kts 271°
2026-05-07 11:05 40.92794 6.99976 35047 ft 403 kts 270°
2026-05-07 11:06 40.93175 6.93789 35042 ft 403 kts 270°
2026-05-07 11:06 40.93620 6.86403 35042 ft 403 kts 270°
2026-05-07 11:07 40.94062 6.79015 35058 ft 403 kts 270°
2026-05-07 11:07 40.94491 6.71613 35041 ft 404 kts 270°
2026-05-07 11:08 40.94924 6.64206 35044 ft 404 kts 270°
2026-05-07 11:08 40.95356 6.56786 35038 ft 404 kts 270°
2026-05-07 11:09 40.95781 6.49371 35043 ft 404 kts 270°
2026-05-07 11:09 40.96197 6.41995 35050 ft 405 kts 270°
2026-05-07 11:10 40.96613 6.34516 35047 ft 405 kts 270°
2026-05-07 11:10 40.97023 6.27081 35047 ft 405 kts 270°
2026-05-07 11:11 40.97428 6.19652 35045 ft 405 kts 270°
2026-05-07 11:11 40.97825 6.12209 35046 ft 405 kts 270°
2026-05-07 11:12 40.98228 6.04769 35052 ft 406 kts 270°
2026-05-07 11:12 40.98619 5.97320 35047 ft 406 kts 270°
2026-05-07 11:13 40.99006 5.89919 35046 ft 406 kts 270°
2026-05-07 11:13 40.99386 5.82457 35044 ft 406 kts 270°
2026-05-07 11:14 40.99762 5.74994 35041 ft 406 kts 270°
2026-05-07 11:14 41.00139 5.67530 35054 ft 407 kts 269°
2026-05-07 11:15 41.00500 5.60061 35047 ft 407 kts 269°
2026-05-07 11:15 41.00861 5.52583 35045 ft 407 kts 269°
2026-05-07 11:16 41.01226 5.45105 35045 ft 407 kts 269°
2026-05-07 11:16 41.01577 5.37627 35045 ft 407 kts 269°
2026-05-07 11:17 41.01967 5.30139 35060 ft 408 kts 270°
2026-05-07 11:17 41.02370 5.22650 35050 ft 408 kts 270°
2026-05-07 11:18 41.02757 5.15160 35049 ft 408 kts 269°
2026-05-07 11:18 41.03135 5.07662 35044 ft 408 kts 269°
2026-05-07 11:19 41.03512 5.00166 35042 ft 408 kts 269°
2026-05-07 11:19 41.03889 4.92664 35058 ft 408 kts 269°
2026-05-07 11:20 41.04249 4.85159 35048 ft 408 kts 269°
2026-05-07 11:20 41.04608 4.77649 35045 ft 409 kts 270°
2026-05-07 11:21 41.05242 4.70137 35048 ft 411 kts 273°
2026-05-07 11:21 41.06105 4.62687 35047 ft 412 kts 274°
2026-05-07 11:22 41.06996 4.55191 35061 ft 412 kts 273°
2026-05-07 11:22 41.07833 4.47628 35052 ft 412 kts 273°
2026-05-07 11:23 41.08622 4.40154 35049 ft 412 kts 272°
2026-05-07 11:23 41.09410 4.32627 35046 ft 412 kts 273°
2026-05-07 11:24 41.10202 4.25100 35045 ft 412 kts 273°
2026-05-07 11:24 41.11001 4.17564 35061 ft 413 kts 272°
2026-05-07 11:25 41.11792 4.10020 35050 ft 413 kts 272°
2026-05-07 11:25 41.12574 4.02461 35045 ft 414 kts 272°
2026-05-07 11:26 41.13354 3.94900 35041 ft 414 kts 272°
2026-05-07 11:26 41.14128 3.87329 35041 ft 414 kts 272°
2026-05-07 11:27 41.14890 3.79752 35062 ft 414 kts 272°
2026-05-07 11:27 41.15648 3.72163 35050 ft 416 kts 272°
2026-05-07 11:28 41.16413 3.64551 35042 ft 416 kts 272°
2026-05-07 11:28 41.17178 3.56937 35041 ft 417 kts 272°
2026-05-07 11:29 41.17939 3.49307 35042 ft 417 kts 272°
2026-05-07 11:29 41.18690 3.41675 35042 ft 417 kts 272°
2026-05-07 11:30 41.19432 3.34045 35047 ft 417 kts 272°
2026-05-07 11:30 41.20167 3.26402 35043 ft 417 kts 272°
2026-05-07 11:31 41.20899 3.18757 35048 ft 417 kts 272°
2026-05-07 11:31 41.21620 3.11170 35046 ft 417 kts 272°
2026-05-07 11:32 41.22718 2.99708 35044 ft 418 kts 271°
2026-05-07 11:33 41.23434 2.92048 35049 ft 418 kts 271°
2026-05-07 11:33 41.24144 2.84379 35043 ft 418 kts 271°
2026-05-07 11:34 41.24851 2.76710 35037 ft 418 kts 271°
2026-05-07 11:34 41.25549 2.69032 35046 ft 418 kts 271°
2026-05-07 11:35 41.26241 2.61350 35050 ft 419 kts 271°
2026-05-07 11:35 41.26936 2.53651 35044 ft 420 kts 271°
2026-05-07 11:36 41.27635 2.45940 35045 ft 420 kts 271°
2026-05-07 11:36 41.28318 2.38228 35045 ft 420 kts 271°
2026-05-07 11:37 41.28996 2.30506 35048 ft 420 kts 271°
2026-05-07 11:37 41.29672 2.22782 35061 ft 421 kts 271°
2026-05-07 11:38 41.30343 2.15052 35056 ft 421 kts 270°
2026-05-07 11:38 41.31576 2.07374 35052 ft 431 kts 282°
2026-05-07 11:39 41.33518 1.99827 35066 ft 432 kts 282°
2026-05-07 11:39 41.34600 1.92133 35053 ft 420 kts 269°
2026-05-07 11:40 41.35054 1.84372 35038 ft 421 kts 269°
2026-05-07 11:40 41.35488 1.76585 35028 ft 422 kts 269°
2026-05-07 11:41 41.35919 1.68781 35029 ft 423 kts 269°
2026-05-07 11:41 41.36351 1.60968 35024 ft 423 kts 269°
2026-05-07 11:42 41.36776 1.53157 35025 ft 423 kts 269°
2026-05-07 11:42 41.37188 1.45377 35031 ft 424 kts 269°
2026-05-07 11:43 41.37597 1.37536 35025 ft 425 kts 269°
2026-05-07 11:43 41.38002 1.29676 35024 ft 425 kts 269°
2026-05-07 11:44 41.38406 1.21818 35020 ft 426 kts 269°
2026-05-07 11:44 41.38805 1.13955 35044 ft 426 kts 269°
2026-05-07 11:45 41.39199 1.06082 35022 ft 427 kts 269°
2026-05-07 11:45 41.39593 0.98186 35015 ft 427 kts 269°
2026-05-07 11:46 41.39981 0.90280 35005 ft 428 kts 269°
2026-05-07 11:46 41.40361 0.82364 35001 ft 428 kts 269°
2026-05-07 11:47 41.40739 0.74446 35013 ft 429 kts 269°
2026-05-07 11:47 41.41104 0.66509 35004 ft 430 kts 269°
2026-05-07 11:48 41.41460 0.58560 34994 ft 430 kts 269°
2026-05-07 11:48 41.41825 0.50591 34994 ft 431 kts 269°
2026-05-07 11:49 41.42190 0.42623 34993 ft 431 kts 269°
2026-05-07 11:49 41.42542 0.34646 35007 ft 432 kts 269°
2026-05-07 11:50 41.42887 0.26656 34995 ft 432 kts 269°
2026-05-07 11:50 41.43224 0.18652 34991 ft 433 kts 268°
2026-05-07 11:51 41.43557 0.10636 34990 ft 433 kts 269°
2026-05-07 11:51 41.43887 0.02666 34988 ft 433 kts 268°
2026-05-07 11:52 41.44217 -0.05359 34996 ft 434 kts 268°
2026-05-07 11:52 41.44533 -0.13403 34990 ft 435 kts 268°
2026-05-07 11:53 41.44847 -0.21462 34984 ft 436 kts 268°
2026-05-07 11:53 41.45107 -0.28218 34985 ft 436 kts 268°
2026-05-07 11:54 41.45408 -0.36291 34986 ft 436 kts 268°
2026-05-07 11:54 41.45707 -0.44368 34987 ft 436 kts 268°
2026-05-07 11:55 41.46001 -0.52443 34985 ft 436 kts 268°
2026-05-07 11:55 41.46291 -0.60526 34985 ft 436 kts 268°
2026-05-07 11:56 41.46571 -0.68603 34991 ft 436 kts 268°
2026-05-07 11:56 41.46847 -0.76631 35004 ft 436 kts 268°
2026-05-07 11:57 41.47116 -0.84723 34991 ft 437 kts 268°
2026-05-07 11:57 41.47375 -0.92891 34987 ft 438 kts 268°
2026-05-07 11:58 41.47634 -1.00959 34984 ft 439 kts 268°
2026-05-07 11:58 41.47893 -1.09088 34985 ft 439 kts 268°
2026-05-07 11:59 41.48142 -1.17230 35003 ft 439 kts 267°
2026-05-07 11:59 41.48384 -1.25375 34993 ft 440 kts 267°
2026-05-07 12:00 41.48623 -1.33545 34999 ft 441 kts 267°
2026-05-07 12:00 41.48857 -1.41715 34984 ft 441 kts 267°
2026-05-07 12:01 41.49083 -1.49890 34987 ft 441 kts 267°
2026-05-07 12:01 41.49306 -1.58068 34996 ft 442 kts 267°
2026-05-07 12:02 41.49526 -1.66250 34986 ft 442 kts 267°
2026-05-07 12:02 41.49738 -1.74445 34984 ft 442 kts 267°
2026-05-07 12:03 41.49943 -1.82639 34982 ft 442 kts 267°
2026-05-07 12:03 41.50136 -1.90826 34985 ft 442 kts 267°
2026-05-07 12:04 41.50329 -1.99032 34991 ft 443 kts 267°
2026-05-07 12:04 41.50517 -2.07259 34990 ft 444 kts 267°
2026-05-07 12:05 41.50701 -2.15503 34991 ft 444 kts 267°
2026-05-07 12:05 41.50872 -2.23737 34982 ft 444 kts 267°
2026-05-07 12:06 41.51042 -2.31985 34987 ft 445 kts 267°
2026-05-07 12:06 41.51209 -2.40250 34977 ft 446 kts 267°
2026-05-07 12:07 41.51373 -2.48532 34967 ft 447 kts 267°
2026-05-07 12:07 41.51520 -2.56778 34970 ft 448 kts 267°
2026-05-07 12:08 41.51666 -2.65086 34958 ft 448 kts 267°
2026-05-07 12:08 41.51815 -2.73399 34979 ft 448 kts 268°
2026-05-07 12:09 41.51949 -2.81719 34965 ft 449 kts 268°
2026-05-07 12:09 41.52081 -2.90048 34960 ft 449 kts 268°
2026-05-07 12:10 41.52206 -2.98388 34953 ft 449 kts 268°
2026-05-07 12:10 41.52331 -3.06716 34964 ft 449 kts 268°
2026-05-07 12:11 41.52444 -3.15061 34951 ft 450 kts 268°
2026-05-07 12:11 41.52544 -3.23414 34945 ft 450 kts 268°
2026-05-07 12:12 41.52641 -3.31770 34945 ft 451 kts 268°
2026-05-07 12:12 41.52737 -3.40130 34942 ft 451 kts 268°
2026-05-07 12:13 41.52828 -3.48492 34953 ft 451 kts 268°
2026-05-07 12:13 41.52910 -3.56855 34946 ft 451 kts 268°
2026-05-07 12:14 41.52985 -3.65218 34942 ft 451 kts 268°
2026-05-07 12:14 41.53058 -3.73577 34941 ft 450 kts 268°
2026-05-07 12:15 41.53124 -3.81935 34943 ft 450 kts 268°
2026-05-07 12:15 41.53186 -3.90294 34943 ft 450 kts 268°
2026-05-07 12:16 41.53239 -3.98591 34941 ft 450 kts 268°
2026-05-07 12:16 41.53289 -4.06997 34941 ft 450 kts 268°
2026-05-07 12:17 41.53328 -4.15341 34936 ft 450 kts 268°
2026-05-07 12:17 41.53360 -4.23636 34936 ft 450 kts 268°
2026-05-07 12:18 41.53386 -4.31981 34940 ft 450 kts 268°
2026-05-07 12:18 41.53407 -4.40322 34938 ft 450 kts 268°
2026-05-07 12:19 41.53420 -4.48673 34933 ft 450 kts 268°
2026-05-07 12:19 41.53428 -4.57016 34935 ft 450 kts 268°
2026-05-07 12:20 41.53429 -4.65357 34943 ft 449 kts 269°
2026-05-07 12:20 41.53425 -4.73688 34945 ft 449 kts 269°
2026-05-07 12:21 41.53415 -4.82013 34944 ft 448 kts 269°
2026-05-07 12:21 41.53403 -4.90333 34944 ft 448 kts 269°
2026-05-07 12:22 41.53389 -4.98646 34944 ft 448 kts 269°
2026-05-07 12:22 41.53364 -5.06951 34942 ft 447 kts 269°
2026-05-07 12:23 41.53330 -5.15247 34937 ft 447 kts 269°
2026-05-07 12:23 41.53297 -5.23532 34934 ft 446 kts 269°
2026-05-07 12:24 41.53252 -5.31816 34931 ft 446 kts 269°
2026-05-07 12:24 41.53194 -5.40092 34927 ft 446 kts 270°
2026-05-07 12:25 41.53134 -5.48357 34928 ft 445 kts 270°
2026-05-07 12:25 41.53081 -5.56609 34924 ft 445 kts 270°
2026-05-07 12:26 41.52999 -5.64860 34924 ft 444 kts 268°
2026-05-07 12:26 41.52546 -5.73083 34916 ft 444 kts 265°
2026-05-07 12:27 41.51847 -5.81215 34922 ft 444 kts 265°
2026-05-07 12:27 41.51166 -5.89390 34922 ft 443 kts 265°
2026-05-07 12:28 41.50563 -5.97556 34918 ft 442 kts 266°
2026-05-07 12:28 41.49988 -6.05715 34918 ft 442 kts 266°
2026-05-07 12:29 41.49391 -6.13874 34913 ft 441 kts 266°
2026-05-07 12:29 41.48773 -6.22007 34917 ft 441 kts 266°
2026-05-07 12:30 41.48371 -6.30144 34912 ft 438 kts 274°
2026-05-07 12:30 41.48648 -6.38246 34914 ft 437 kts 274°
2026-05-07 12:31 41.48914 -6.46355 34911 ft 437 kts 274°
2026-05-07 12:31 41.49164 -6.54447 34904 ft 436 kts 274°
2026-05-07 12:32 41.49410 -6.62516 34913 ft 435 kts 274°
2026-05-07 12:32 41.49653 -6.70554 34577 ft 432 kts 274°
2026-05-07 12:32 41.49771 -6.74553 34341 ft 431 kts 274°
2026-05-07 12:33 41.50000 -6.82534 33869 ft 430 kts 275°
2026-05-07 12:33 41.50115 -6.86523 33574 ft 429 kts 275°
2026-05-07 12:33 41.50226 -6.90494 33298 ft 428 kts 275°
2026-05-07 12:34 41.50336 -6.94457 33025 ft 428 kts 275°
2026-05-07 12:34 41.50444 -6.98424 32757 ft 428 kts 275°
2026-05-07 12:34 41.50550 -7.02344 32496 ft 428 kts 275°
2026-05-07 12:34 41.50654 -7.06318 32233 ft 429 kts 275°
2026-05-07 12:35 41.50756 -7.10295 31972 ft 430 kts 275°
2026-05-07 12:35 41.50859 -7.14282 31654 ft 430 kts 275°
2026-05-07 12:35 41.50962 -7.18275 30732 ft 433 kts 275°
2026-05-07 12:35 41.51066 -7.22303 29821 ft 435 kts 276°
2026-05-07 12:36 41.51171 -7.26340 28859 ft 436 kts 275°
2026-05-07 12:36 41.51275 -7.30384 27921 ft 436 kts 275°
2026-05-07 12:36 41.51374 -7.34434 26998 ft 437 kts 274°
2026-05-07 12:36 41.51473 -7.38504 25933 ft 442 kts 274°
2026-05-07 12:37 41.51569 -7.42625 24837 ft 447 kts 273°
2026-05-07 12:37 41.51665 -7.46787 23845 ft 450 kts 273°
2026-05-07 12:37 41.51757 -7.50973 22840 ft 451 kts 272°
2026-05-07 12:37 41.51845 -7.55124 22052 ft 444 kts 272°
2026-05-07 12:38 41.51931 -7.59228 21246 ft 439 kts 272°
2026-05-07 12:38 41.52015 -7.63281 20437 ft 435 kts 272°
2026-05-07 12:38 41.52100 -7.67298 19619 ft 431 kts 272°
2026-05-07 12:38 41.52227 -7.71281 18805 ft 429 kts 273°
2026-05-07 12:39 41.52415 -7.75238 17978 ft 426 kts 274°
2026-05-07 12:39 41.52640 -7.79167 17125 ft 423 kts 274°
2026-05-07 12:39 41.52874 -7.83061 16339 ft 419 kts 274°
2026-05-07 12:39 41.53098 -7.86928 15554 ft 416 kts 273°
2026-05-07 12:40 41.53306 -7.90758 14797 ft 413 kts 273°
2026-05-07 12:40 41.53436 -7.93287 14300 ft 412 kts 272°
2026-05-07 12:40 41.53624 -7.97093 13580 ft 410 kts 272°
2026-05-07 12:40 41.53803 -8.00876 12848 ft 407 kts 271°
2026-05-07 12:41 41.53976 -8.04627 12182 ft 402 kts 271°
2026-05-07 12:41 41.54149 -8.08328 11527 ft 397 kts 271°
2026-05-07 12:41 41.54322 -8.11967 11158 ft 385 kts 272°
2026-05-07 12:41 41.54487 -8.15444 11018 ft 366 kts 271°
2026-05-07 12:42 41.54643 -8.18751 10902 ft 349 kts 271°
2026-05-07 12:42 41.54793 -8.21912 10786 ft 335 kts 271°
2026-05-07 12:42 41.54935 -8.24950 10661 ft 322 kts 271°
2026-05-07 12:42 41.55069 -8.27880 10537 ft 310 kts 270°
2026-05-07 12:43 41.55197 -8.30698 10401 ft 299 kts 270°
2026-05-07 12:43 41.55321 -8.33428 10187 ft 292 kts 270°
2026-05-07 12:43 41.55442 -8.36120 10131 ft 291 kts 271°
2026-05-07 12:43 41.55429 -8.38815 10045 ft 290 kts 262°
2026-05-07 12:44 41.55231 -8.41488 9932 ft 289 kts 262°
2026-05-07 12:44 41.55035 -8.44176 9486 ft 294 kts 262°
2026-05-07 12:44 41.54843 -8.46877 9171 ft 290 kts 263°
2026-05-07 12:44 41.54657 -8.49548 8777 ft 288 kts 262°
2026-05-07 12:45 41.54470 -8.52204 8399 ft 286 kts 262°
2026-05-07 12:45 41.54284 -8.54825 7816 ft 283 kts 262°
2026-05-07 12:45 41.54098 -8.57434 7258 ft 281 kts 261°
2026-05-07 12:45 41.53912 -8.60013 6731 ft 278 kts 261°
2026-05-07 12:46 41.53707 -8.62568 6161 ft 275 kts 257°
2026-05-07 12:46 41.53340 -8.65058 5610 ft 272 kts 256°
2026-05-07 12:46 41.52973 -8.67528 5074 ft 270 kts 256°
2026-05-07 12:46 41.52608 -8.69975 4612 ft 266 kts 254°
2026-05-07 12:47 41.51916 -8.72114 4549 ft 239 kts 230°
2026-05-07 12:47 41.50741 -8.73558 4460 ft 225 kts 208°
2026-05-07 12:47 41.49302 -8.74256 4289 ft 218 kts 187°
2026-05-07 12:47 41.47820 -8.74189 4075 ft 210 kts 169°
2026-05-07 12:48 41.46410 -8.73814 3829 ft 204 kts 169°
2026-05-07 12:48 41.45030 -8.73447 3593 ft 202 kts 169°
2026-05-07 12:48 41.43661 -8.73086 3359 ft 200 kts 169°
2026-05-07 12:48 41.42290 -8.72724 3101 ft 200 kts 170°
2026-05-07 12:49 41.40921 -8.72363 2867 ft 202 kts 169°
2026-05-07 12:49 41.39545 -8.72000 2620 ft 201 kts 169°
2026-05-07 12:49 41.38193 -8.71644 2403 ft 194 kts 172°
2026-05-07 12:49 41.36897 -8.71302 2147 ft 187 kts 172°
2026-05-07 12:50 41.35655 -8.70975 1914 ft 179 kts 172°
2026-05-07 12:50 41.34480 -8.70666 1727 ft 164 kts 170°
2026-05-07 12:50 41.33412 -8.70385 1524 ft 152 kts 171°
2026-05-07 12:50 41.32385 -8.70115 1335 ft 149 kts 171°
2026-05-07 12:51 41.31361 -8.69846 1158 ft 150 kts 170°
2026-05-07 12:51 41.30321 -8.69572 971 ft 153 kts 170°
2026-05-07 12:51 41.29267 -8.69286 805 ft 156 kts 170°
2026-05-07 12:51 41.28203 -8.69013 576 ft 155 kts 174°
2026-05-07 12:52 41.27147 -8.68733 430 ft 154 kts 172°
2026-05-07 12:52 41.26113 -8.68465 218 ft 153 kts 173°
2026-05-07 12:52 41.25117 -8.68209 193 ft 131 kts 170°
2026-05-07 12:52 41.24363 -8.68008 211 ft 95 kts 169°
2026-05-07 12:53 41.23941 -8.67896 224 ft 19 kts 168°
2026-05-07 12:53 41.23897 -8.67811 222 ft 10 kts 81°
2026-05-07 12:53 41.23907 -8.67730 227 ft 7 kts 81°
2026-05-07 12:53 41.23916 -8.67659 230 ft 10 kts 80°
2026-05-07 12:54 41.23928 -8.67568 235 ft 8 kts 83°
2026-05-07 12:54 41.23919 -8.67523 237 ft 4 kts 133°
2026-05-07 12:54 41.23902 -8.67499 238 ft 3 kts 134°
2026-05-07 12:54 41.23889 -8.67492 239 ft 2 kts 168°
2026-05-07 12:55 41.23874 -8.67488 239 ft 3 kts 169°
2026-05-07 12:55 41.23861 -8.67485 239 ft 2 kts 170°
2026-05-07 12:55 41.23837 -8.67480 239 ft 5 kts 170°
2026-05-07 12:55 41.23794 -8.67470 239 ft 8 kts 170°
2026-05-07 12:56 41.23752 -8.67448 239 ft 5 kts 143°
2026-05-07 12:56 41.23751 -8.67426 240 ft 1 kts 63°
2026-05-07 12:56 41.23760 -8.67414 241 ft 2 kts 47°
2026-05-07 12:56 41.23770 -8.67400 242 ft 2 kts 48°
2026-05-07 12:57 41.23779 -8.67386 243 ft 2 kts 48°
2026-05-07 12:57 41.23788 -8.67374 243 ft 2 kts 48°
2026-05-07 12:57 41.23792 -8.67368 244 ft 0 kts 48°